CYGFM08 (41888 NORAD) Tracking and Keplerian Element Data

This shows tracking and keplerian element data for the satellite.

Feedback or suggestion? Click here.




ElementValue
Catalog41888
NameCYGFM08
Epoch Orbit13006
Epoch Day112.21987195
Epoch Year2019
RAAN160.2442
Inclination34.9494
Eccentricity0.0016003
Argument of Perigee242.3553
Mean Anonmoly117.5533
Mean Motion15.14585944
Decay Rate3.15E-06
L11 41888U 16078E 19112.21987195 .00000315 00000-0 18335-4 0 9990
L22 41888 34.9494 160.2442 0016003 242.3553 117.5533 15.14585944130068

Live tracking and technical data element details for CYGFM08 (NORAD 41888). CYGFM08 can be tracked NOW for your location showing map with azimuth and elevation plus other details from your city location.

Track the satellite on the map from your city or location and see movement details for azimuth, elevation, latitude, longitude, range, height, and movement on the map or in text.







IsCatalogInMostPopularTable: catalog: 41888, numindb: 201
Update: records affected: 1



GetName: 41888 CYGFM08

Hit Count: updated at: Tue, 23 Apr 2019 19:57:28 GMT